This is the latest recevied weather packets stored in our database for station/object W0VI. If no packets are shown the sender has not sent any weather packets the latest 10 day(s).
| Time | Temp. | Humidity | Pressure | Rain* | Wind** | Luminosity | Snow |
|---|---|---|---|---|---|---|---|
| 1787681491 | 25° C | 70% | 1014.2 hPa | 0 mm | - | 563 W/m² | - |
| 1787681186 | 25.56° C | 69% | 1014.2 hPa | 0 mm | - | 562 W/m² | - |
| 1787680882 | 25° C | 71% | 1014.4 hPa | 0 mm | - | 550 W/m² | - |
| 1787680576 | 24.44° C | 71% | 1014.4 hPa | 0 mm | - | 575 W/m² | - |
| 1787680275 | 25° C | 70% | 1014.6 hPa | 0 mm | - | 308 W/m² | - |
| 1787679974 | 25° C | 69% | 1014.8 hPa | 0 mm | - | 353 W/m² | - |
| 1787679674 | 25° C | 69% | 1014.5 hPa | 0 mm | - | 590 W/m² | - |
| 1787679369 | 25.56° C | 68% | 1014.7 hPa | 0 mm | - | 604 W/m² | - |
| 1787679066 | 25° C | 69% | 1014.8 hPa | 0 mm | - | 534 W/m² | - |
| 1787678765 | 24.44° C | 70% | 1014.8 hPa | 0 mm | - | 661 W/m² | - |
| 1787678465 | 24.44° C | 70% | 1015 hPa | 0 mm | - | 597 W/m² | - |
| 1787678160 | 23.89° C | 71% | 1015.1 hPa | 0 mm | - | 676 W/m² | - |
| 1787677855 | 23.89° C | 71% | 1014.7 hPa | 0 mm | - | 211 W/m² | - |
| 1787677555 | 23.89° C | 71% | 1015 hPa | 0 mm | - | 203 W/m² | - |
| 1787677248 | 23.89° C | 71% | 1015.2 hPa | 0 mm | - | 217 W/m² | - |
| 1787676948 | 23.89° C | 70% | 1014.9 hPa | 0 mm | - | 205 W/m² | - |
| 1787676643 | 23.89° C | 69% | 1014.9 hPa | 0 mm | - | 205 W/m² | - |
| 1787676339 | 24.44° C | 68% | 1014.9 hPa | 0 mm | - | 180 W/m² | - |
| 1787676035 | 24.44° C | 69% | 1014.8 hPa | 0 mm | - | 312 W/m² | - |
| 1787675731 | 25° C | 68% | 1014.8 hPa | 0 mm | - | 274 W/m² | - |
| 1787675426 | 23.89° C | 68% | 1015 hPa | 0 mm | - | 363 W/m² | - |
| 1787675124 | 24.44° C | 68% | 1014.9 hPa | 0 mm | - | 212 W/m² | - |
| 1787674819 | 25° C | 66% | 1015.3 hPa | 0 mm | - | 502 W/m² | - |
| 1787674515 | 24.44° C | 68% | 1015.2 hPa | 0 mm | - | 376 W/m² | - |
| 1787674210 | 24.44° C | 67% | 1015.5 hPa | 0 mm | - | 422 W/m² | - |
* Rain latest hour (hover to see other rain measurements)
** Current wind speed in m/s (hover to see current wind gust speed)